TimeCDT,TemperatureF,Dew PointF,Humidity,Sea Level PressureIn,VisibilityMPH,Wind Direction,Wind SpeedMPH,Gust SpeedMPH,PrecipitationIn,Events,Conditions,WindDirDegrees,DateUTC
12:53 AM,89.1,69.1,52,29.92,10.0,SSE,8.1,-,N/A,,Overcast,160,2013-06-15 05:53:00
1:53 AM,88.0,69.1,53,29.92,10.0,South,8.1,-,N/A,,Overcast,170,2013-06-15 06:53:00
2:53 AM,86.0,69.1,57,29.91,10.0,SSE,3.5,-,N/A,,Overcast,150,2013-06-15 07:53:00
3:53 AM,86.0,70.0,59,29.90,10.0,East,4.6,-,N/A,,Mostly Cloudy,100,2013-06-15 08:53:00
4:00 AM,84.2,69.8,62,29.93,10.0,ESE,8.1,-,0.00,Rain-Thunderstorm,Light Thunderstorms and Rain,110,2013-06-15 09:00:00
4:12 AM,84.2,69.8,62,29.97,0.5,SE,33.4,43.7,0.00,Rain-Thunderstorm,Light Thunderstorms and Rain,140,2013-06-15 09:12:00
4:18 AM,82.4,69.8,66,29.98,1.5,SSE,27.6,44.9,0.00,Rain-Thunderstorm,Light Thunderstorms and Rain,150,2013-06-15 09:18:00
4:34 AM,75.2,69.8,83,29.99,3.0,SE,16.1,41.4,0.25,Rain-Thunderstorm,Thunderstorms and Rain,130,2013-06-15 09:34:00
4:49 AM,75.2,66.2,73,29.93,10.0,North,9.2,-,0.32,Rain-Thunderstorm,Light Thunderstorms and Rain,10,2013-06-15 09:49:00
4:53 AM,75.0,66.9,76,29.90,10.0,North,5.8,-,0.32,Rain-Thunderstorm,Light Thunderstorms and Rain,10,2013-06-15 09:53:00
5:37 AM,75.2,68.0,78,29.91,10.0,Calm,Calm,-,0.00,,Mostly Cloudy,0,2013-06-15 10:37:00
5:53 AM,75.0,70.0,84,29.90,10.0,Calm,Calm,-,0.00,,Mostly Cloudy,0,2013-06-15 10:53:00
6:53 AM,75.9,70.0,82,29.94,10.0,SE,5.8,-,N/A,,Mostly Cloudy,130,2013-06-15 11:53:00
7:53 AM,75.9,66.9,74,29.96,10.0,ESE,8.1,-,N/A,,Overcast,120,2013-06-15 12:53:00
8:53 AM,78.1,70.0,76,29.98,10.0,SE,12.7,-,N/A,,Overcast,130,2013-06-15 13:53:00
9:53 AM,80.1,69.1,69,29.99,10.0,SE,9.2,-,N/A,,Overcast,130,2013-06-15 14:53:00
10:53 AM,82.9,71.1,67,29.98,10.0,South,6.9,-,N/A,,Mostly Cloudy,170,2013-06-15 15:53:00
11:53 AM,84.9,71.1,63,29.97,10.0,SSW,5.8,-,N/A,,Mostly Cloudy,210,2013-06-15 16:53:00
12:53 PM,89.1,71.1,55,29.96,10.0,Variable,5.8,-,N/A,,Mostly Cloudy,0,2013-06-15 17:53:00
1:53 PM,89.1,71.1,55,29.94,10.0,WSW,6.9,-,N/A,,Mostly Cloudy,240,2013-06-15 18:53:00
2:53 PM,90.0,71.1,54,29.93,10.0,Variable,3.5,-,N/A,,Mostly Cloudy,0,2013-06-15 19:53:00
3:53 PM,91.0,71.1,52,29.92,10.0,West,4.6,-,N/A,,Mostly Cloudy,270,2013-06-15 20:53:00
4:53 PM,91.0,72.0,53,29.90,10.0,Calm,Calm,-,N/A,,Mostly Cloudy,0,2013-06-15 21:53:00
5:53 PM,91.0,71.1,52,29.88,10.0,West,3.5,-,N/A,,Mostly Cloudy,260,2013-06-15 22:53:00
6:53 PM,90.0,70.0,52,29.87,10.0,Calm,Calm,-,N/A,,Mostly Cloudy,0,2013-06-15 23:53:00
7:53 PM,90.0,72.0,55,29.88,10.0,East,9.2,-,N/A,,Mostly Cloudy,100,2013-06-16 00:53:00
8:53 PM,84.9,70.0,61,29.90,10.0,ESE,12.7,-,N/A,,Mostly Cloudy,120,2013-06-16 01:53:00
9:53 PM,82.9,69.1,63,29.91,10.0,SE,8.1,-,N/A,,Overcast,130,2013-06-16 02:53:00
10:53 PM,82.0,69.1,65,29.94,10.0,ESE,12.7,-,N/A,,Overcast,110,2013-06-16 03:53:00
11:53 PM,81.0,68.0,65,29.93,10.0,ESE,8.1,-,N/A,,Mostly Cloudy,110,2013-06-16 04:53:00